Weather reports worldwide

Advertisment
New Bern, nc, United States of America (2074441): temperature & dewpoint: 09.09.2019 04:00:00 - 15.09.2019 04:00:00 (EDT)New Bern, nc, United States of America (2074441): wind speed: 09.09.2019 04:00:00 - 15.09.2019 04:00:00 (EDT)New Bern, nc, United States of America (2074441): wind direction: 09.09.2019 04:00:00 - 15.09.2019 04:00:00 (EDT)New Bern, nc, United States of America (2074441): reduced air pressure: 09.09.2019 04:00:00 - 15.09.2019 04:00:00 (EDT)New Bern, nc, United States of America (2074441): visibility: 09.09.2019 04:00:00 - 15.09.2019 04:00:00 (EDT)New Bern, nc, United States of America (2074441): precipitation: 09.09.2019 04:00:00 - 15.09.2019 04:00:00 (EDT)
Date & Time tt [°C] td [°C] ff [km/h] ff [kn] dd ppp [hPa] vv [km] rr [mm]
15.09.2019 04:00:00 22,2 22,2 8 4 N 1020,2 16 -
15.09.2019 03:00:00 22,8 22,8 8 4 NNE 1020,7 16 -
15.09.2019 02:00:00 22,8 22,2 9 5 E 1021,0 10 -
15.09.2019 01:00:00 23,3 22,8 9 5 E 1020,7 16 -
15.09.2019 00:00:00 23,3 22,8 5 3 NNE 1021,3 16 -
14.09.2019 23:00:00 23,9 22,2 11 6 NE 1021,6 16 -
14.09.2019 22:00:00 23,3 22,2 8 4 ENE 1021,9 16 -
14.09.2019 21:00:00 23,9 22,2 9 5 NE 1021,9 16 -
14.09.2019 20:00:00 24,4 22,2 5 3 E 1021,7 16 -
14.09.2019 19:00:00 25,6 22,2 11 6 E 1021,6 16 -
14.09.2019 18:00:00 27,2 21,7 16 9 E 1022,0 16 -
14.09.2019 17:00:00 28,3 21,7 21 11 E 1021,9 16 -
14.09.2019 16:00:00 29,4 22,2 16 9 E 1022,0 16 -
14.09.2019 15:00:00 28,9 23,3 16 9 E 1022,5 16 0,0
14.09.2019 14:00:00 30,0 22,8 21 11 NE 1023,0 16 -
14.09.2019 13:00:00 29,4 22,2 18 10 ENE 1023,5 16 -
14.09.2019 12:00:00 28,3 22,8 16 9 NE 1024,0 16 -
14.09.2019 11:00:00 26,7 22,8 13 7 E 1024,5 16 -
14.09.2019 10:00:00 26,1 23,3 15 8 NE 1024,5 16 -
14.09.2019 09:00:00 23,9 22,8 16 9 NNE 1024,4 16 -
14.09.2019 08:00:00 22,2 21,7 16 9 NNE 1024,1 16 -
14.09.2019 07:00:00 21,7 21,7 15 8 NNE 1023,4 16 -
14.09.2019 06:00:00 21,7 21,1 13 7 N 1023,0 16 -
14.09.2019 05:00:00 21,7 21,7 9 5 N 1023,0 16 -
14.09.2019 04:00:00 22,2 21,7 15 8 NNE 1023,1 16 -
14.09.2019 03:00:00 22,2 21,7 16 9 NNE 1023,5 16 -
14.09.2019 02:00:00 22,8 22,2 16 9 NNE 1023,8 16 0,0
14.09.2019 01:00:00 23,3 22,2 15 8 NNE 1024,0 16 -
14.09.2019 00:00:00 23,3 22,2 15 8 NE 1024,3 16 -
13.09.2019 23:00:00 23,3 21,7 16 9 NE 1024,8 16 -
13.09.2019 22:00:00 23,9 22,2 18 10 NNE 1024,8 16 -
13.09.2019 21:00:00 23,9 22,2 22 12 NNE 1024,6 16 -
13.09.2019 20:00:00 24,4 21,7 18 10 NNE 1024,1 16 -
13.09.2019 19:00:00 24,4 21,7 18 10 NE 1023,7 16 -
13.09.2019 18:00:00 25,6 22,2 24 13 NE 1023,6 16 -
13.09.2019 17:00:00 27,2 23,3 29 16 ENE 1022,9 16 0,0
13.09.2019 16:00:00 27,2 23,9 28 15 NE 1022,7 16 0,3
13.09.2019 15:00:00 28,3 23,9 18 10 E 1022,8 16 -
13.09.2019 14:00:00 27,8 23,9 15 8 E 1023,1 16 0,0
13.09.2019 13:00:00 28,3 23,3 16 9 NE 1023,7 16 -
13.09.2019 12:00:00 27,8 23,3 18 10 NE 1023,7 16 -
13.09.2019 11:00:00 28,3 23,3 21 11 ENE 1023,4 16 -
13.09.2019 10:00:00 26,7 23,3 16 9 NE 1022,9 16 -
13.09.2019 09:00:00 24,4 23,3 11 6 NE 1022,5 16 -
13.09.2019 08:00:00 23,3 22,8 5 3 N 1021,9 15 -
13.09.2019 07:00:00 22,8 22,8 0 0 N 1021,3 16 -
13.09.2019 06:00:00 23,3 22,8 5 3 NNW 1021,2 16 -
13.09.2019 05:00:00 22,8 22,2 0 0 N 1020,6 16 -
13.09.2019 04:00:00 23,3 22,8 0 0 N 1019,9 16 -
13.09.2019 03:00:00 22,8 22,2 0 0 N 1019,8 16 -
13.09.2019 02:00:00 22,8 22,8 5 3 WSW 1019,9 16 -
13.09.2019 01:00:00 23,3 22,8 5 3 SW 1019,7 16 -
13.09.2019 00:00:00 23,3 22,8 5 3 SSW 1019,6 16 -
12.09.2019 23:00:00 23,9 22,8 5 3 SSW 1019,9 16 -
12.09.2019 22:00:00 24,4 22,8 5 3 S 1020,0 16 -
12.09.2019 21:00:00 25,6 22,8 9 5 S 1019,5 16 -
12.09.2019 20:00:00 26,7 22,8 8 4 S 1019,1 16 -
12.09.2019 19:00:00 28,3 23,3 11 6 S 1018,8 16 -
12.09.2019 18:00:00 30,6 23,9 16 9 S 1018,4 16 -
12.09.2019 17:00:00 31,7 23,9 8 4 SSW 1018,4 16 -
12.09.2019 16:00:00 31,1 23,3 0 0 N 1018,7 16 -
12.09.2019 15:00:00 32,2 23,9 8 4 WSW 1018,9 16 -
12.09.2019 14:00:00 32,2 24,4 5 3 - 1019,7 16 -
12.09.2019 13:00:00 30,6 23,3 8 4 W 1020,5 16 -
12.09.2019 12:00:00 30,0 23,3 5 3 WSW 1021,0 16 -
12.09.2019 11:00:00 28,3 22,8 0 0 N 1021,5 16 -
12.09.2019 10:00:00 27,2 23,3 5 3 NW 1021,8 16 -
12.09.2019 09:00:00 25,0 23,3 8 4 W 1021,6 16 -
12.09.2019 08:00:00 21,7 21,7 0 0 N 1021,2 16 -
12.09.2019 07:00:00 20,0 20,0 0 0 N 1020,8 16 -
12.09.2019 06:00:00 21,1 21,1 0 0 N 1020,4 4,8 -
12.09.2019 05:00:00 19,4 19,4 0 0 N 1019,5 0,8 -
12.09.2019 04:00:00 20,0 20,0 0 0 N 1019,5 16 -
12.09.2019 03:00:00 20,0 20,0 0 0 N 1020,2 16 -
12.09.2019 02:00:00 20,6 20,6 0 0 N 1020,7 8 -
12.09.2019 01:00:00 20,6 20,6 0 0 N 1020,7 15 -
12.09.2019 00:00:00 21,1 21,1 0 0 N 1021,2 16 -
11.09.2019 23:00:00 21,1 21,1 0 0 N 1022,1 16 -
11.09.2019 22:00:00 23,3 21,7 5 3 S 1021,4 16 -
11.09.2019 21:00:00 23,9 22,2 5 3 S 1021,4 16 -
11.09.2019 20:00:00 25,6 22,2 8 4 S 1021,0 16 -
11.09.2019 19:00:00 27,2 20,0 8 4 SE 1020,9 16 -
11.09.2019 18:00:00 28,9 22,2 11 6 ESE 1020,8 16 -
11.09.2019 17:00:00 30,0 22,8 11 6 SE 1021,1 16 -
11.09.2019 16:00:00 31,1 20,6 5 3 - 1021,5 16 -
11.09.2019 15:00:00 30,6 21,1 0 0 N 1022,0 16 -
11.09.2019 14:00:00 30,6 20,6 0 0 N 1022,9 16 -
11.09.2019 13:00:00 30,0 21,1 5 3 - 1023,8 16 -
11.09.2019 12:00:00 28,3 21,1 0 0 N 1024,7 16 -
11.09.2019 11:00:00 27,2 21,7 0 0 N 1025,3 16 -
11.09.2019 10:00:00 25,0 22,8 5 3 ENE 1025,5 16 -
11.09.2019 09:00:00 22,8 22,8 8 4 NE 1025,5 16 -
11.09.2019 08:00:00 21,7 21,7 5 3 NE 1025,4 6 -
11.09.2019 07:00:00 21,7 21,7 8 4 NNE 1024,9 0,4 -
11.09.2019 06:00:00 22,2 22,2 5 3 NNE 1024,5 1,6 -
11.09.2019 05:00:00 22,2 22,2 0 0 N 1024,2 0,8 -
11.09.2019 04:00:00 21,1 21,1 8 4 NNE 1024,5 3,2 -
11.09.2019 03:00:00 22,2 22,2 0 0 N 1024,6 13 -
11.09.2019 02:00:00 22,2 22,2 5 3 NE 1024,9 16 -
11.09.2019 01:00:00 22,2 22,2 0 0 N 1025,1 16 -
11.09.2019 00:00:00 23,3 22,8 0 0 N 1025,2 16 -
10.09.2019 23:00:00 23,9 23,3 8 4 ENE 1025,0 16 -
10.09.2019 22:00:00 23,9 23,3 8 4 E 1025,0 16 -
10.09.2019 21:00:00 24,4 23,3 9 5 E 1024,8 16 -
10.09.2019 20:00:00 25,0 22,8 8 4 E 1024,4 16 -
10.09.2019 19:00:00 26,7 22,2 11 6 E 1024,4 16 -
10.09.2019 18:00:00 27,2 22,8 13 7 E 1024,4 16 -
10.09.2019 17:00:00 29,4 23,3 15 8 E 1024,2 16 -
10.09.2019 16:00:00 29,4 23,3 13 7 NE 1024,2 16 -
10.09.2019 15:00:00 29,4 23,3 15 8 N 1024,7 16 -
10.09.2019 14:00:00 27,8 22,8 11 6 N 1025,2 16 -
10.09.2019 13:00:00 27,8 23,3 11 6 NNW 1025,7 16 -
10.09.2019 12:00:00 25,0 22,8 16 9 NNE 1026,1 16 -
10.09.2019 11:00:00 25,0 22,2 11 6 N 1026,1 16 -
10.09.2019 10:00:00 23,3 22,8 15 8 NNE 1026,0 16 -
10.09.2019 09:00:00 22,2 22,2 15 8 NNE 1025,8 6 -
10.09.2019 08:00:00 22,2 22,2 9 5 N 1024,9 1,6 -
10.09.2019 07:00:00 22,2 22,2 0 0 N 1024,1 8 -
10.09.2019 06:00:00 22,2 22,2 8 4 NNE 1023,6 15 -
10.09.2019 05:00:00 22,2 22,2 11 6 NNE 1023,2 4,0 -
10.09.2019 04:00:00 21,1 21,1 0 0 N 1023,1 13 -
10.09.2019 03:00:00 22,2 22,2 0 0 N 1022,6 16 -
10.09.2019 02:00:00 21,7 21,7 8 4 NNE 1023,0 16 -
10.09.2019 01:00:00 21,7 21,7 0 0 N 1023,1 11 -
10.09.2019 00:00:00 22,2 22,2 5 3 ESE 1022,9 16 -
09.09.2019 23:00:00 21,1 21,1 9 5 NNE 1022,6 15 -
09.09.2019 22:00:00 22,2 22,2 8 4 E 1023,1 16 -
09.09.2019 21:00:00 21,7 21,1 8 4 N 1022,2 16 -
09.09.2019 20:00:00 22,2 21,1 5 3 W 1020,8 16 -
09.09.2019 19:00:00 22,8 21,7 8 4 SW 1020,5 16 -
09.09.2019 18:00:00 22,8 22,2 11 6 SSW 1020,3 16 0,0
09.09.2019 17:00:00 22,8 22,2 8 4 SSE 1021,7 16 0,0
09.09.2019 16:00:00 24,4 22,2 28 15 NE 1021,3 10 0,5
09.09.2019 15:00:00 27,8 23,3 26 14 E 1020,0 16 -
09.09.2019 14:00:00 32,2 24,4 5 3 - 1020,5 16 -
09.09.2019 13:00:00 31,1 25,0 9 5 W 1021,3 16 -
09.09.2019 12:00:00 30,0 23,9 5 3 WNW 1021,3 16 -
09.09.2019 11:00:00 30,0 25,0 13 7 W 1021,2 16 -
09.09.2019 10:00:00 28,3 25,6 13 7 W 1021,3 16 -
09.09.2019 09:00:00 26,7 25,0 9 5 WSW 1021,2 16 -
09.09.2019 08:00:00 24,4 24,4 0 0 N 1020,8 10 -
09.09.2019 07:00:00 23,3 23,3 0 0 N 1020,0 6 -
09.09.2019 06:00:00 23,9 23,3 5 3 SSW 1019,0 13 -
09.09.2019 05:00:00 23,3 23,3 5 3 SSW 1018,8 8 -
09.09.2019 04:00:00 23,9 23,9 0 0 N 1018,5 11 -

tt = temperature
td = dewpoint
ff = wind speed
dd = wind direction
ppp = reduced air pressure
vv = visibility
rr = precipitation

Next stations